Weather in Kubran

Russia / Karachay-Cherkess Republic     43°50′21″N   41°55′51″E
temp.,
°C
wind,
m/s
gust,
m/s
humid.,
%
clouds,
%
prec.,
mm/h
press.,
hPa
HPBL,
m
7 march, sun
sun700:00−1s3470100 0.0 101887
03:00−5nnw3695100 0.3 1021352
06:00−7wnw1292100 1.6 1023358
09:00−7nnw2385100 2.1 1024407
12:00−4nnw2274100 0.1 1023638
15:00−3nnw2278100 0.2 1022516
18:00−6nnw2291100 0.0 1023152
21:00−8se019577 0.1 102429
8 march, mon
mon800:00−7n01851 0.0 102321
03:00−8nne119115 0.0 102230
06:00−9nnw11899 0.0 102122
09:00−4ne01715 0.0 1020192
12:00−2nnw326956 0.0 1018496
15:00−2nnw227777 0.1 1017500
18:00−5nnw129191 0.1 1018127
21:00−6nw119593 0.3 1019119
9 march, tue
tue900:00−7ese009786 0.0 102039
03:00−8se128870 0.0 101926
06:00−8se227461 0.0 101936
09:00−4sse115546 0.0 1019292
12:00−1nw23471 0.0 1019978
15:00−1nnw33612 0.0 1019860
18:00−5nnw229179 0.1 1020220
21:00−6wsw119487 0.3 102369
10 march, wed
wed1000:00−7se118042 0.0 102232
03:00−8se117438 0.0 102324
06:00−8se116988 0.0 102225
09:00−5n115594 0.0 1021343
12:00−2nnw2155100 0.0 1019688
15:00−2n2269100 0.0 1018632
18:00−5nne2388100 0.2 1017249
21:00−5nne1293100 1.2 1018146
11 march, thu
thu1100:00−6n1195100 1.8 1017137
03:00−6nnw1295100 3.7 1018151
06:00−7n1294100 1.5 1019144
09:00−7nnw2291100 2.6 1020281
12:00−5nnw3278100 0.4 1020599
15:00−5nnw2278100 0.7 1020558
18:00−9nnw2291100 0.2 1023195
21:00−10ese0195100 0.4 102575